ITY170 LIMC-LIRF

Flight info

Callsign ITY170
Flight time 0h 45m
Altitude 29000
Route ROBAS5W ROBAS DCT TINKU DCT XIBIL XIBIL3A
Aircraft A339/H-SDE2E3FGHIJ1RWXY/5544

Departure

Time 2026-05-07 19:11
Airport Milan Malpensa International Airport (LIMC)

Arrival

Time 2026-05-07 19:56
Airport Rome–Fiumicino Leonardo da Vinci International Airport (LIRF)
Time Latitude Longitude Altitude Speed Heading
2026-05-07 19:03 45.62733 8.71685 741 ft 0 kts 330°
2026-05-07 19:03 45.62697 8.71715 737 ft 10 kts 291°
2026-05-07 19:04 45.62720 8.71794 736 ft 10 kts 195°
2026-05-07 19:04 45.62780 8.71796 737 ft 2 kts 169°
2026-05-07 19:06 45.62775 8.71798 737 ft 3 kts 169°
2026-05-07 19:06 45.62711 8.71814 736 ft 17 kts 169°
2026-05-07 19:07 45.62537 8.71862 736 ft 33 kts 168°
2026-05-07 19:07 45.62261 8.71942 731 ft 47 kts 169°
2026-05-07 19:07 45.61905 8.72041 726 ft 57 kts 168°
2026-05-07 19:07 45.61514 8.72151 719 ft 56 kts 169°
2026-05-07 19:08 45.61183 8.72376 696 ft 53 kts 127°
2026-05-07 19:08 45.61090 8.72734 698 ft 24 kts 74°
2026-05-07 19:08 45.61123 8.72961 702 ft 23 kts 78°
2026-05-07 19:08 45.61185 8.73168 695 ft 22 kts 47°
2026-05-07 19:09 45.61345 8.73255 707 ft 29 kts
2026-05-07 19:09 45.61559 8.73226 711 ft 33 kts 359°
2026-05-07 19:09 45.61625 8.73386 710 ft 21 kts 86°
2026-05-07 19:09 45.61587 8.73572 705 ft 20 kts 103°
2026-05-07 19:10 45.61628 8.73738 700 ft 7 kts 30°
2026-05-07 19:10 45.61655 8.73727 698 ft 7 kts 348°
2026-05-07 19:10 45.61899 8.73663 715 ft 80 kts 350°
2026-05-07 19:10 45.62742 8.73434 733 ft 160 kts 349°
2026-05-07 19:11 45.63967 8.73101 1227 ft 183 kts 350°
2026-05-07 19:11 45.65250 8.72795 2073 ft 195 kts 353°
2026-05-07 19:11 45.66620 8.72641 2984 ft 199 kts 358°
2026-05-07 19:11 45.68011 8.72602 3908 ft 201 kts 359°
2026-05-07 19:12 45.69427 8.72602 4723 ft 205 kts 360°
2026-05-07 19:12 45.70868 8.72607 5521 ft 208 kts 360°
2026-05-07 19:12 45.72309 8.72380 6262 ft 212 kts 340°
2026-05-07 19:12 45.73564 8.71208 6699 ft 229 kts 311°
2026-05-07 19:13 45.74325 8.69139 7118 ft 243 kts 281°
2026-05-07 19:13 45.74282 8.66725 7717 ft 245 kts 254°
2026-05-07 19:13 45.73511 8.64532 7949 ft 257 kts 231°
2026-05-07 19:13 45.72063 8.62900 8242 ft 278 kts 204°
2026-05-07 19:14 45.70148 8.62381 8836 ft 285 kts 176°
2026-05-07 19:14 45.68244 8.63140 9581 ft 289 kts 150°
2026-05-07 19:14 45.66717 8.65012 10245 ft 294 kts 129°
2026-05-07 19:14 45.65523 8.67519 10481 ft 315 kts 119°
2026-05-07 19:15 45.64425 8.70340 10653 ft 335 kts 117°
2026-05-07 19:15 45.63277 8.73311 11085 ft 345 kts 119°
2026-05-07 19:15 45.62084 8.76253 11690 ft 349 kts 120°
2026-05-07 19:15 45.60818 8.79242 12276 ft 353 kts 121°
2026-05-07 19:16 45.59516 8.82240 12881 ft 358 kts 122°
2026-05-07 19:16 45.58184 8.85272 13483 ft 362 kts 122°
2026-05-07 19:16 45.56835 8.88337 14058 ft 366 kts 123°
2026-05-07 19:16 45.55485 8.91404 14626 ft 369 kts 123°
2026-05-07 19:17 45.54106 8.94535 15176 ft 372 kts 123°
2026-05-07 19:17 45.52725 8.97672 15756 ft 375 kts 123°
2026-05-07 19:17 45.51330 9.00839 16306 ft 378 kts 123°
2026-05-07 19:17 45.49922 9.04034 16850 ft 382 kts 123°
2026-05-07 19:18 45.48504 9.07250 17396 ft 385 kts 123°
2026-05-07 19:18 45.47072 9.10493 17958 ft 389 kts 123°
2026-05-07 19:18 45.45644 9.13726 18470 ft 392 kts 123°
2026-05-07 19:18 45.44182 9.17031 18961 ft 395 kts 123°
2026-05-07 19:19 45.42711 9.20354 19423 ft 398 kts 123°
2026-05-07 19:19 45.41225 9.23706 19913 ft 402 kts 123°
2026-05-07 19:19 45.39722 9.27097 20412 ft 405 kts 124°
2026-05-07 19:19 45.38213 9.30496 20892 ft 408 kts 124°
2026-05-07 19:20 45.36685 9.33933 21383 ft 412 kts 124°
2026-05-07 19:20 45.35146 9.37391 21876 ft 416 kts 124°
2026-05-07 19:20 45.33592 9.40880 22357 ft 419 kts 124°
2026-05-07 19:20 45.32046 9.44349 22856 ft 423 kts 124°
2026-05-07 19:21 45.30464 9.47892 23353 ft 426 kts 124°
2026-05-07 19:21 45.28867 9.51465 23782 ft 430 kts 124°
2026-05-07 19:21 45.27251 9.55078 24203 ft 434 kts 124°
2026-05-07 19:21 45.25627 9.58704 24618 ft 437 kts 125°
2026-05-07 19:22 45.23991 9.62352 25036 ft 440 kts 125°
2026-05-07 19:22 45.22331 9.66050 25437 ft 444 kts 125°
2026-05-07 19:22 45.20573 9.69656 25797 ft 444 kts 133°
2026-05-07 19:22 45.18350 9.72662 26213 ft 440 kts 147°
2026-05-07 19:23 45.15770 9.74841 26617 ft 435 kts 160°
2026-05-07 19:23 45.12960 9.76448 27032 ft 436 kts 163°
2026-05-07 19:23 45.10134 9.78041 27446 ft 439 kts 163°
2026-05-07 19:23 45.07290 9.79666 27859 ft 441 kts 163°
2026-05-07 19:24 45.04442 9.81309 28263 ft 444 kts 163°
2026-05-07 19:24 45.01571 9.82974 28675 ft 446 kts 163°
2026-05-07 19:24 44.98681 9.84652 28906 ft 451 kts 163°
2026-05-07 19:24 44.95744 9.86351 28940 ft 461 kts 163°
2026-05-07 19:25 44.89675 9.89650 28935 ft 479 kts 164°
2026-05-07 19:25 44.83369 9.93133 28952 ft 491 kts 164°
2026-05-07 19:26 44.76997 9.96587 28960 ft 494 kts 165°
2026-05-07 19:26 44.70558 10.00033 28987 ft 496 kts 165°
2026-05-07 19:27 44.64101 10.03472 28995 ft 496 kts 165°
2026-05-07 19:27 44.57632 10.06911 29005 ft 497 kts 165°
2026-05-07 19:28 44.51130 10.10357 29025 ft 500 kts 165°
2026-05-07 19:28 44.44651 10.13786 29051 ft 501 kts 166°
2026-05-07 19:29 44.38140 10.17225 29035 ft 499 kts 166°
2026-05-07 19:29 44.31611 10.20661 29031 ft 500 kts 166°
2026-05-07 19:30 44.25098 10.24080 29023 ft 500 kts 166°
2026-05-07 19:30 44.18575 10.27499 29021 ft 501 kts 166°
2026-05-07 19:31 44.12039 10.30916 29020 ft 501 kts 166°
2026-05-07 19:31 44.05547 10.34295 29027 ft 501 kts 166°
2026-05-07 19:32 43.99025 10.37688 29045 ft 499 kts 166°
2026-05-07 19:32 43.92522 10.41063 29025 ft 498 kts 166°
2026-05-07 19:33 43.86027 10.44430 29005 ft 498 kts 166°
2026-05-07 19:33 43.79536 10.47781 28992 ft 497 kts 166°
2026-05-07 19:34 43.73062 10.51125 28979 ft 496 kts 166°
2026-05-07 19:34 43.66579 10.54457 28983 ft 497 kts 166°
2026-05-07 19:35 43.60131 10.57760 28988 ft 497 kts 166°
2026-05-07 19:35 43.53648 10.61078 28991 ft 497 kts 166°
2026-05-07 19:36 43.47143 10.64400 28998 ft 497 kts 166°
2026-05-07 19:36 43.40649 10.67708 29016 ft 498 kts 166°
2026-05-07 19:37 43.34513 10.72413 29016 ft 512 kts 150°
2026-05-07 19:37 43.28723 10.78152 29025 ft 512 kts 150°
2026-05-07 19:38 43.22878 10.83704 29026 ft 510 kts 152°
2026-05-07 19:38 43.16989 10.89127 29026 ft 509 kts 152°
2026-05-07 19:39 43.11131 10.94482 29021 ft 508 kts 152°
2026-05-07 19:39 43.06471 10.99446 29012 ft 516 kts 141°
2026-05-07 19:40 43.00743 11.07531 28995 ft 518 kts 139°
2026-05-07 19:40 42.95694 11.14519 28984 ft 516 kts 140°
2026-05-07 19:41 42.90576 11.21397 28980 ft 516 kts 140°
2026-05-07 19:41 42.86344 11.27048 28339 ft 509 kts 140°
2026-05-07 19:42 42.83811 11.30422 27374 ft 508 kts 140°
2026-05-07 19:42 42.81297 11.33766 26509 ft 504 kts 140°
2026-05-07 19:42 42.78801 11.37082 25722 ft 497 kts 139°
2026-05-07 19:42 42.76339 11.40350 24954 ft 491 kts 139°
2026-05-07 19:43 42.73910 11.43572 24210 ft 485 kts 139°
2026-05-07 19:43 42.71506 11.46754 23447 ft 480 kts 139°
2026-05-07 19:43 42.69126 11.49905 22616 ft 473 kts 139°
2026-05-07 19:43 42.66792 11.52995 21823 ft 466 kts 139°
2026-05-07 19:44 42.64482 11.56048 21024 ft 459 kts 139°
2026-05-07 19:44 42.62204 11.59056 20239 ft 453 kts 138°
2026-05-07 19:44 42.59955 11.62022 19469 ft 447 kts 138°
2026-05-07 19:44 42.57735 11.64946 18706 ft 441 kts 138°
2026-05-07 19:45 42.55575 11.67788 17921 ft 435 kts 138°
2026-05-07 19:45 42.53417 11.70624 17076 ft 428 kts 138°
2026-05-07 19:45 42.51292 11.73415 16235 ft 422 kts 138°
2026-05-07 19:45 42.49157 11.76082 15354 ft 414 kts 143°
2026-05-07 19:46 42.46761 11.78168 14529 ft 405 kts 153°
2026-05-07 19:46 42.44327 11.80009 13551 ft 394 kts 153°
2026-05-07 19:46 42.41942 11.81798 12203 ft 388 kts 153°
2026-05-07 19:46 42.39594 11.83544 10935 ft 382 kts 153°
2026-05-07 19:47 42.37266 11.85267 10042 ft 379 kts 153°
2026-05-07 19:47 42.34972 11.86962 9133 ft 373 kts 152°
2026-05-07 19:47 42.32709 11.88633 8215 ft 368 kts 152°
2026-05-07 19:47 42.30474 11.90284 7304 ft 364 kts 152°
2026-05-07 19:48 42.28268 11.91911 6426 ft 359 kts 152°
2026-05-07 19:48 42.26113 11.93497 5495 ft 355 kts 151°
2026-05-07 19:48 42.23961 11.95080 5137 ft 354 kts 151°
2026-05-07 19:48 42.21809 11.96665 5049 ft 350 kts 151°
2026-05-07 19:49 42.19677 11.98234 5014 ft 349 kts 151°
2026-05-07 19:49 42.17538 11.99807 4912 ft 350 kts 151°
2026-05-07 19:49 42.15400 12.01377 4796 ft 349 kts 151°
2026-05-07 19:49 42.13275 12.02955 4703 ft 348 kts 149°
2026-05-07 19:50 42.11301 12.04864 4715 ft 348 kts 139°
2026-05-07 19:50 42.09605 12.07156 4562 ft 344 kts 131°
2026-05-07 19:50 42.08003 12.09547 4210 ft 342 kts 131°
2026-05-07 19:50 42.06451 12.11852 4109 ft 318 kts 131°
2026-05-07 19:51 42.05059 12.13904 4099 ft 282 kts 131°
2026-05-07 19:51 42.03815 12.15733 4107 ft 248 kts 131°
2026-05-07 19:51 42.02720 12.17340 4101 ft 220 kts 131°
2026-05-07 19:51 42.01573 12.18655 3762 ft 216 kts 146°
2026-05-07 19:52 42.00247 12.19521 3422 ft 207 kts 157°
2026-05-07 19:52 41.98918 12.20120 3115 ft 194 kts 161°
2026-05-07 19:52 41.97682 12.20625 2863 ft 181 kts 160°
2026-05-07 19:52 41.96538 12.21111 2630 ft 165 kts 160°
2026-05-07 19:53 41.95447 12.21576 2413 ft 167 kts 160°
2026-05-07 19:53 41.94363 12.22031 2198 ft 161 kts 161°
2026-05-07 19:53 41.93278 12.22490 1976 ft 162 kts 160°
2026-05-07 19:53 41.92197 12.22945 1767 ft 165 kts 160°
2026-05-07 19:54 41.91122 12.23396 1543 ft 160 kts 160°
2026-05-07 19:54 41.90032 12.23858 1327 ft 163 kts 161°
2026-05-07 19:54 41.88973 12.24299 1098 ft 161 kts 161°
2026-05-07 19:54 41.87906 12.24756 720 ft 158 kts 162°
2026-05-07 19:55 41.86855 12.25194 517 ft 160 kts 163°
2026-05-07 19:55 41.85810 12.25639 324 ft 161 kts 163°
2026-05-07 19:55 41.84758 12.26100 124 ft 155 kts 165°
2026-05-07 19:55 41.83759 12.26498 27 ft 132 kts 163°
2026-05-07 19:56 41.83074 12.26781 26 ft 77 kts 163°
2026-05-07 19:56 41.82677 12.26945 28 ft 52 kts 161°
2026-05-07 19:56 41.82337 12.27097 20 ft 51 kts 163°
2026-05-07 19:56 41.82000 12.27118 18 ft 48 kts 189°
2026-05-07 19:57 41.81682 12.27056 27 ft 44 kts 175°
2026-05-07 19:57 41.81405 12.27164 26 ft 41 kts 163°
2026-05-07 19:57 41.81109 12.27273 21 ft 45 kts 177°
2026-05-07 19:57 41.80922 12.27213 17 ft 15 kts 166°
2026-05-07 19:58 41.80786 12.27142 17 ft 29 kts 231°
2026-05-07 19:58 41.80595 12.26998 21 ft 30 kts 220°
2026-05-07 19:58 41.80513 12.26707 22 ft 40 kts 248°
2026-05-07 19:58 41.80409 12.26314 20 ft 50 kts 251°
2026-05-07 19:59 41.80284 12.25854 22 ft 54 kts 248°
2026-05-07 19:59 41.80146 12.25377 28 ft 56 kts 250°
2026-05-07 19:59 41.80103 12.24859 25 ft 57 kts 260°
2026-05-07 19:59 41.79946 12.24402 18 ft 32 kts 213°
2026-05-07 20:00 41.79871 12.24393 20 ft 8 kts 201°
2026-05-07 20:00 41.79822 12.24313 21 ft 15 kts 244°
2026-05-07 20:00 41.79771 12.24167 23 ft 17 kts 220°
2026-05-07 20:00 41.79730 12.24176 22 ft 4 kts 150°
2026-05-07 20:01 41.79685 12.24193 21 ft 0 kts 169°